LPA727 UGTB-LIRF

Flight info

Callsign LPA727
Flight time N/A
Altitude 38000
Route DF1D DF N11 ROLIN UN644 SIN UW90 DEVMU UL852 NEGEM Q8 DOLAP DCT OBLAK DCT KATTI/N0442F398 DCT RIVAM/N0433F370 DCT ERPOG/N0419F330 DCT ESODU/N0340F190 Z924 MOPUV MOPUV3A
Aircraft A320/M-SDE3FGHIRWY/LB1

Departure

Time 2026-04-27 18:19
Airport Tbilisi International Airport (UGTB)

Arrival

Time N/A
Airport Rome–Fiumicino Leonardo da Vinci International Airport (LIRF)
Time Latitude Longitude Altitude Speed Heading
2026-04-27 17:02 41.66832 44.96454 1526 ft 0 kts 44°
2026-04-27 17:59 41.66826 44.96447 1526 ft 2 kts 44°
2026-04-27 18:00 41.66814 44.96431 1518 ft 2 kts 44°
2026-04-27 18:00 41.66802 44.96416 1518 ft 2 kts 43°
2026-04-27 18:00 41.66790 44.96401 1519 ft 2 kts 43°
2026-04-27 18:00 41.66778 44.96386 1522 ft 2 kts 43°
2026-04-27 18:01 41.66766 44.96371 1518 ft 2 kts 43°
2026-04-27 18:01 41.66754 44.96356 1519 ft 2 kts 43°
2026-04-27 18:01 41.66742 44.96341 1521 ft 2 kts 42°
2026-04-27 18:01 41.66729 44.96326 1518 ft 2 kts 41°
2026-04-27 18:02 41.66718 44.96313 1525 ft 1 kts 42°
2026-04-27 18:02 41.66715 44.96309 1519 ft 0 kts 44°
2026-04-27 18:05 41.66725 44.96320 1523 ft 6 kts 41°
2026-04-27 18:05 41.66747 44.96347 1525 ft 4 kts 41°
2026-04-27 18:05 41.66748 44.96394 1524 ft 7 kts 120°
2026-04-27 18:06 41.66692 44.96426 1525 ft 10 kts 194°
2026-04-27 18:06 41.66636 44.96391 1523 ft 8 kts 135°
2026-04-27 18:06 41.66569 44.96396 1525 ft 12 kts 193°
2026-04-27 18:06 41.66469 44.96361 1523 ft 17 kts 194°
2026-04-27 18:07 41.66346 44.96321 1525 ft 18 kts 194°
2026-04-27 18:07 41.66233 44.96300 1525 ft 15 kts 175°
2026-04-27 18:07 41.66139 44.96345 1524 ft 14 kts 146°
2026-04-27 18:07 41.66061 44.96440 1526 ft 16 kts 136°
2026-04-27 18:08 41.65979 44.96547 1524 ft 17 kts 136°
2026-04-27 18:08 41.65931 44.96598 1524 ft 0 kts 154°
2026-04-27 18:10 41.65929 44.96598 1524 ft 0 kts 163°
2026-04-27 18:10 41.65921 44.96602 1524 ft 2 kts 163°
2026-04-27 18:11 41.65918 44.96602 1513 ft 0 kts 167°
2026-04-27 18:13 41.65898 44.96600 1523 ft 6 kts 187°
2026-04-27 18:14 41.65866 44.96580 1522 ft 4 kts 218°
2026-04-27 18:15 41.65850 44.96552 1520 ft 6 kts 241°
2026-04-27 18:16 41.65844 44.96493 1525 ft 6 kts 274°
2026-04-27 18:16 41.65853 44.96444 1522 ft 5 kts 305°
2026-04-27 18:16 41.65875 44.96414 1525 ft 4 kts 315°
2026-04-27 18:16 41.65894 44.96390 1525 ft 3 kts 318°
2026-04-27 18:17 41.65902 44.96381 1525 ft 0 kts 316°
2026-04-27 18:17 41.65902 44.96380 1525 ft 0 kts 316°
2026-04-27 18:17 41.65903 44.96379 1525 ft 0 kts 316°
2026-04-27 18:18 41.65904 44.96378 1525 ft 0 kts 316°
2026-04-27 18:18 41.65991 44.96269 1521 ft 52 kts 316°
2026-04-27 18:19 41.66442 44.95701 1527 ft 122 kts 316°
2026-04-27 18:19 41.67179 44.94790 1825 ft 154 kts 314°
2026-04-27 18:19 41.67935 44.93878 2674 ft 143 kts 317°
2026-04-27 18:19 41.68660 44.92984 3305 ft 143 kts 316°
2026-04-27 18:20 41.69432 44.92022 3616 ft 162 kts 317°
2026-04-27 18:20 41.70315 44.90920 3845 ft 186 kts 316°
2026-04-27 18:20 41.71328 44.89658 4182 ft 210 kts 316°
2026-04-27 18:20 41.72445 44.88267 4748 ft 225 kts 315°
2026-04-27 18:21 41.73569 44.86783 5512 ft 230 kts 311°
2026-04-27 18:21 41.74623 44.85118 6237 ft 238 kts 308°
2026-04-27 18:21 41.75665 44.83361 6960 ft 244 kts 307°
2026-04-27 18:21 41.76718 44.81556 7697 ft 249 kts 307°
2026-04-27 18:22 41.77797 44.79715 8427 ft 254 kts 307°
2026-04-27 18:22 41.78907 44.77836 9170 ft 259 kts 307°
2026-04-27 18:22 41.80045 44.75923 9878 ft 266 kts 307°
2026-04-27 18:22 41.81222 44.73950 10343 ft 280 kts 307°
2026-04-27 18:23 41.82495 44.71826 10550 ft 303 kts 307°
2026-04-27 18:23 41.83852 44.69565 10967 ft 316 kts 307°
2026-04-27 18:23 41.85248 44.67242 11600 ft 322 kts 307°
2026-04-27 18:23 41.86664 44.64888 12279 ft 327 kts 307°
2026-04-27 18:24 41.88104 44.62492 12921 ft 332 kts 306°
2026-04-27 18:24 41.89556 44.60056 13568 ft 337 kts 303°
2026-04-27 18:24 41.90744 44.57338 14153 ft 338 kts 291°
2026-04-27 18:24 41.91460 44.54327 14724 ft 340 kts 279°
2026-04-27 18:25 41.91681 44.51169 15306 ft 342 kts 269°
2026-04-27 18:25 41.91669 44.47963 15907 ft 345 kts 269°
2026-04-27 18:25 41.91663 44.44731 16524 ft 348 kts 269°
2026-04-27 18:25 41.91661 44.41467 17107 ft 351 kts 269°
2026-04-27 18:26 41.91656 44.38179 17711 ft 354 kts 269°
2026-04-27 18:26 41.91648 44.34861 18296 ft 357 kts 269°
2026-04-27 18:26 41.91639 44.31514 18806 ft 360 kts 269°
2026-04-27 18:26 41.91631 44.28140 19327 ft 363 kts 269°
2026-04-27 18:27 41.91622 44.24743 19824 ft 366 kts 269°
2026-04-27 18:27 41.91616 44.21315 20326 ft 369 kts 269°
2026-04-27 18:27 41.91608 44.17855 20835 ft 371 kts 269°
2026-04-27 18:27 41.91596 44.14372 21309 ft 375 kts 269°
2026-04-27 18:28 41.91580 44.10851 21821 ft 378 kts 269°
2026-04-27 18:28 41.91563 44.07307 22297 ft 381 kts 269°
2026-04-27 18:28 41.91552 44.04941 22612 ft 384 kts 269°
2026-04-27 18:28 41.91536 44.01354 23111 ft 386 kts 269°
2026-04-27 18:29 41.91519 43.97736 23549 ft 390 kts 269°
2026-04-27 18:29 41.91493 43.92823 23749 ft 404 kts 269°
2026-04-27 18:29 41.91478 43.90253 23830 ft 410 kts 269°
2026-04-27 18:29 41.91456 43.86391 23955 ft 418 kts 269°
2026-04-27 18:30 41.91432 43.82445 24076 ft 426 kts 269°
2026-04-27 18:30 41.91396 43.77129 24236 ft 434 kts 269°
2026-04-27 18:30 41.91378 43.74373 24316 ft 438 kts 269°
2026-04-27 18:30 41.91350 43.70258 24438 ft 444 kts 269°
2026-04-27 18:31 41.91321 43.66161 24555 ft 448 kts 269°
2026-04-27 18:31 41.91289 43.61955 24671 ft 451 kts 269°
2026-04-27 18:31 41.91259 43.57726 24799 ft 454 kts 269°
2026-04-27 18:31 41.91224 43.53474 24918 ft 456 kts 269°
2026-04-27 18:32 41.91183 43.49212 25039 ft 458 kts 269°
2026-04-27 18:32 41.91139 43.44928 25155 ft 459 kts 269°
2026-04-27 18:32 41.91094 43.40642 25279 ft 460 kts 269°
2026-04-27 18:32 41.91048 43.36350 25400 ft 461 kts 269°
2026-04-27 18:33 41.91002 43.32045 25524 ft 461 kts 269°
2026-04-27 18:33 41.90958 43.27745 25721 ft 459 kts 268°
2026-04-27 18:33 41.90914 43.23531 26632 ft 441 kts 268°
2026-04-27 18:33 41.90871 43.19497 27741 ft 423 kts 268°
2026-04-27 18:34 41.90826 43.15581 28437 ft 417 kts 268°
2026-04-27 18:34 41.90776 43.11696 28857 ft 417 kts 268°
2026-04-27 18:34 41.90720 43.07802 29197 ft 418 kts 268°
2026-04-27 18:34 41.90664 43.03881 29506 ft 420 kts 268°
2026-04-27 18:35 41.90609 42.99959 29784 ft 422 kts 268°
2026-04-27 18:35 41.90553 42.96009 30056 ft 425 kts 268°
2026-04-27 18:35 41.90498 42.92034 30310 ft 427 kts 268°
2026-04-27 18:35 41.90442 42.88038 30535 ft 429 kts 268°
2026-04-27 18:36 41.90383 42.84030 30752 ft 430 kts 268°
2026-04-27 18:36 41.90285 42.80005 30973 ft 432 kts 266°
2026-04-27 18:36 41.90140 42.75974 31189 ft 433 kts 266°
2026-04-27 18:36 41.89966 42.71945 31493 ft 432 kts 266°
2026-04-27 18:37 41.89787 42.67977 31789 ft 431 kts 266°
2026-04-27 18:37 41.89606 42.63971 32109 ft 430 kts 266°
2026-04-27 18:37 41.89431 42.59969 32425 ft 429 kts 266°
2026-04-27 18:37 41.89265 42.55980 32744 ft 428 kts 266°
2026-04-27 18:38 41.89105 42.52001 33057 ft 427 kts 266°
2026-04-27 18:38 41.88945 42.48021 33366 ft 426 kts 266°
2026-04-27 18:38 41.88784 42.44051 33680 ft 425 kts 266°
2026-04-27 18:38 41.88620 42.40095 33945 ft 425 kts 266°
2026-04-27 18:39 41.88455 42.36137 34230 ft 425 kts 266°
2026-04-27 18:39 41.88284 42.32185 34479 ft 424 kts 266°
2026-04-27 18:39 41.88110 42.28244 34890 ft 416 kts 266°
2026-04-27 18:39 41.87945 42.24457 35802 ft 399 kts 266°
2026-04-27 18:40 41.87784 42.20768 36239 ft 394 kts 266°
2026-04-27 18:40 41.87622 42.17091 36483 ft 394 kts 266°
2026-04-27 18:40 41.87460 42.13430 36656 ft 394 kts 265°
2026-04-27 18:40 41.87296 42.09748 36821 ft 395 kts 265°
2026-04-27 18:41 41.87131 42.06060 36964 ft 396 kts 265°
2026-04-27 18:41 41.86963 42.02368 37100 ft 397 kts 265°
2026-04-27 18:41 41.86791 41.98660 37236 ft 398 kts 265°
2026-04-27 18:41 41.86618 41.94936 37295 ft 401 kts 265°
2026-04-27 18:42 41.86333 41.88670 37277 ft 409 kts 265°
2026-04-27 18:42 41.86095 41.83548 36722 ft 420 kts 265°
2026-04-27 18:42 41.85904 41.79558 36355 ft 432 kts 266°
2026-04-27 18:43 41.85707 41.75510 36252 ft 437 kts 266°
2026-04-27 18:43 41.85509 41.71445 36291 ft 438 kts 266°
2026-04-27 18:43 41.85107 41.63246 36287 ft 442 kts 266°
2026-04-27 18:44 41.84701 41.54988 36281 ft 444 kts 266°
2026-04-27 18:44 41.84298 41.46690 36282 ft 446 kts 266°
2026-04-27 18:45 41.83869 41.38435 36286 ft 447 kts 265°
2026-04-27 18:45 41.83432 41.30061 36278 ft 448 kts 265°
2026-04-27 18:46 41.82999 41.21790 36282 ft 448 kts 265°
2026-04-27 18:46 41.82560 41.13461 36282 ft 447 kts 265°
2026-04-27 18:47 41.82123 41.05148 36278 ft 447 kts 265°
2026-04-27 18:47 41.81670 40.96832 36275 ft 447 kts 265°
2026-04-27 18:48 41.81215 40.88523 36279 ft 447 kts 265°
2026-04-27 18:48 41.80756 40.80222 36280 ft 446 kts 265°
2026-04-27 18:49 41.80283 40.71928 36288 ft 446 kts 265°
2026-04-27 18:49 41.80002 40.63630 36291 ft 446 kts 273°
2026-04-27 18:50 41.80380 40.55336 36282 ft 446 kts 273°
2026-04-27 18:50 41.80744 40.47049 36284 ft 445 kts 272°
2026-04-27 18:51 41.81099 40.38770 36283 ft 445 kts 272°
2026-04-27 18:51 41.81443 40.30502 36284 ft 444 kts 272°
2026-04-27 18:52 41.81788 40.22285 36285 ft 444 kts 272°
2026-04-27 18:53 41.82283 40.09899 36285 ft 443 kts 272°
2026-04-27 18:53 41.82605 40.01655 36286 ft 442 kts 272°
2026-04-27 18:54 41.82922 39.93417 36284 ft 442 kts 272°
2026-04-27 18:54 41.83232 39.85184 36287 ft 442 kts 272°
2026-04-27 18:55 41.83542 39.77012 36288 ft 441 kts 272°
2026-04-27 18:55 41.83844 39.68797 36289 ft 441 kts 272°
2026-04-27 18:56 41.84136 39.60582 36288 ft 441 kts 272°
2026-04-27 18:56 41.84418 39.52369 36291 ft 440 kts 272°
2026-04-27 18:57 41.84703 39.44166 36291 ft 440 kts 272°
2026-04-27 18:57 41.84985 39.35954 36291 ft 441 kts 272°
2026-04-27 18:58 41.85259 39.27742 36292 ft 440 kts 272°
2026-04-27 18:58 41.85523 39.19583 36288 ft 440 kts 272°
2026-04-27 18:59 41.85781 39.11368 36291 ft 440 kts 272°
2026-04-27 18:59 41.86035 39.03163 36290 ft 440 kts 272°
2026-04-27 19:00 41.86284 38.94962 36291 ft 440 kts 272°
2026-04-27 19:00 41.86530 38.86762 36290 ft 440 kts 272°
2026-04-27 19:01 41.86767 38.78560 36290 ft 440 kts 271°
2026-04-27 19:01 41.86989 38.70367 36295 ft 439 kts 271°
2026-04-27 19:02 41.87210 38.62172 36295 ft 439 kts 271°
2026-04-27 19:02 41.87423 38.54044 36291 ft 438 kts 271°
2026-04-27 19:03 41.87635 38.45863 36296 ft 438 kts 271°
2026-04-27 19:03 41.87845 38.37693 36292 ft 438 kts 271°
2026-04-27 19:04 41.88046 38.29531 36295 ft 437 kts 271°
2026-04-27 19:04 41.88246 38.21369 36293 ft 437 kts 271°
2026-04-27 19:05 41.88432 38.13232 36296 ft 436 kts 271°
2026-04-27 19:05 41.88612 38.05083 36296 ft 437 kts 271°
2026-04-27 19:06 41.88784 37.96935 36293 ft 437 kts 271°
2026-04-27 19:06 41.88957 37.88833 36297 ft 437 kts 271°
2026-04-27 19:07 41.89128 37.80689 36296 ft 437 kts 271°
2026-04-27 19:07 41.89293 37.72531 36295 ft 436 kts 271°
2026-04-27 19:08 41.89447 37.64378 36295 ft 437 kts 271°
2026-04-27 19:08 41.89594 37.56223 36296 ft 437 kts 271°
2026-04-27 19:09 41.89734 37.48127 36297 ft 437 kts 271°
2026-04-27 19:09 41.89871 37.39975 36293 ft 436 kts 271°
2026-04-27 19:10 41.89999 37.31838 36294 ft 436 kts 271°
2026-04-27 19:10 41.90118 37.23709 36293 ft 436 kts 270°
2026-04-27 19:11 41.90234 37.15589 36292 ft 435 kts 271°
2026-04-27 19:11 41.90345 37.07455 36289 ft 435 kts 270°
2026-04-27 19:12 41.90588 36.99348 36290 ft 435 kts 274°
2026-04-27 19:12 41.91186 36.91266 36292 ft 435 kts 275°
2026-04-27 19:13 41.91842 36.83192 36290 ft 434 kts 275°
2026-04-27 19:13 41.92416 36.75114 36288 ft 434 kts 274°
2026-04-27 19:14 41.92934 36.67048 36289 ft 434 kts 274°
2026-04-27 19:14 41.93452 36.58950 36288 ft 435 kts 274°
2026-04-27 19:15 41.93975 36.50871 36289 ft 434 kts 274°
2026-04-27 19:15 41.94501 36.42784 36291 ft 434 kts 274°
2026-04-27 19:16 41.94931 36.36056 36290 ft 434 kts 274°
2026-04-27 19:16 41.95436 36.27975 36290 ft 434 kts 274°
2026-04-27 19:17 41.95934 36.19877 36287 ft 434 kts 274°
2026-04-27 19:17 41.96421 36.11797 36285 ft 434 kts 274°
2026-04-27 19:18 41.96912 36.03711 36286 ft 434 kts 274°
2026-04-27 19:18 41.97401 35.95630 36283 ft 434 kts 274°
2026-04-27 19:19 41.97879 35.87550 36283 ft 433 kts 274°
2026-04-27 19:19 41.98344 35.79475 36282 ft 433 kts 274°
2026-04-27 19:20 41.98807 35.71404 36283 ft 433 kts 274°
2026-04-27 19:20 41.99272 35.63381 36279 ft 433 kts 274°
2026-04-27 19:21 41.99733 35.55314 36282 ft 433 kts 274°
2026-04-27 19:21 42.00179 35.47238 36283 ft 433 kts 274°
2026-04-27 19:22 42.00624 35.39169 36282 ft 433 kts 274°
2026-04-27 19:22 42.01063 35.31107 36283 ft 433 kts 274°